Regional Weather Roundup
Issued by NWS

Home | Current Version | Previous Version | Text Only | Print | Product List | Glossary Off
Versions: 1 2 3 4 5 6 7 8 9 10 11 12 13 14 15 16 17 18 19 20 21 22 23 24 25 26 27 28 29 30 31 32 33 34 35 36 37 38 39 40 41 42 43 44 45 46 47 48 49 50

000
ASUS43 KMKX 120659
RWRWI

WISCONSIN REGIONAL WEATHER ROUNDUP
NATIONAL WEATHER SERVICE MILWAUKEE/SULLIVAN WI
100 AM CST TUE DEC 12 2017

NOTE: "FAIR" INDICATES FEW OR NO CLOUDS BELOW 12,000 FEET WITH NO
SIGNIFICANT WEATHER AND/OR OBSTRUCTIONS TO VISIBILITY.

WIZ001-002-006>008-014>016-023>028-120800-
NORTHWEST WISCONSIN

CITY           SKY/WX    TMP DP  RH WIND       PRES   REMARKS
SUPERIOR ARPT  PTCLDY     9   1  72 NW5       30.21S WCI   0
ASHLAND        CLOUDY    14   4  64 NW13      30.14F WCI   0
HAYWARD        FLURRIES  12   4  70 VRB6G16   30.12S WCI   3
SIREN          CLEAR     10   3  72 NW13      30.20S WCI  -5
CUMBERLAND     PTCLDY    10   3  72 NW14      30.14S WCI  -5
RICE LAKE      PTCLDY    13   6  74 CALM      30.16S
CHETEK         CLOUDY    13   7  76 CALM      30.14S
LADYSMITH      MOCLDY    15   6  67 N13G22    30.11S WCI   0
EAU CLAIRE     NOT AVBL
MENOMONIE      PTCLDY    15   7  72 NW13      30.17S WCI   0
NEW RICHMOND   PTCLDY    12   6  76 NW7       30.19S WCI   1
OSCEOLA        CLEAR     13   7  77 NW8       30.24S WCI   2
$$

WIZ003>005-009-010-017-018-120800-
NORTH CENTRAL WISCONSIN

CITY           SKY/WX    TMP DP  RH WIND       PRES   REMARKS
MANITOWISH WTR LGT SNOW  10   7  85 NW9G18    30.00S WCI  -2
ARBOR VITAE    LGT SNOW  14  10  83 NW13G23   29.98S WCI   0
WOODRUFF       LGT SNOW  14  10  83 NW13G23   29.98S WCI   0
RHINELANDER    MOCLDY    12   5  73 NW12G21   29.98R WCI  -2
EAGLE RIVER    PTCLDY    10   3  73 N15G22    29.96R WCI  -6
LAND O LAKES   LGT SNOW  11   5  77 N14G24    29.97S WCI  -4
PHILLIPS       CLOUDY    11   5  74 NW9G17    30.04S WCI  -1
TOMAHAWK       CLOUDY    13   4  66 N15G26    30.01S WCI  -3
MEDFORD        CLOUDY    13   4  67 N17       30.03R WCI  -4
MERRILL        CLOUDY    15   5  65 N14G22    30.01R WCI   0
$$

WIZ029-030-035-036-043>047-120800-
CENTRAL WISCONSIN

CITY           SKY/WX    TMP DP  RH WIND       PRES   REMARKS
WAUSAU         CLOUDY    16   4  59 NW14G23   30.01R WCI   2
MOSINEE        CLOUDY    18   9  68 NW16G25   30.02R WCI   3
MARSHFIELD     PTCLDY    13   4  67 N15       30.03R WCI  -3
STEVENS POINT  CLOUDY    16   4  61 NW13G20   30.03R WCI   2
WAUPACA        MOCLDY    22   8  53 NW18G28   30.01R WCI   8
WAUTOMA        CLOUDY    18   7  62 NW15G25   30.03R WCI   4
WISC RAPIDS    CLOUDY    17   7  64 N13G22    30.06R WCI   4
CAMP DOUGLAS   MOCLDY    17   7  66 NW18      30.08R WCI   0
$$

WIZ011>013-019>022-031-037>040-048>050-120800-
NORTHEAST WISCONSIN

CITY           SKY/WX    TMP DP  RH WIND       PRES   REMARKS
ANTIGO         LGT SNOW  13   9  84 N17G24    29.96R WCI  -4
SHAWANO        CLOUDY    20   8  57 N8        29.99R WCI  11
OCONTO         CLOUDY    18   8  64 N10G21    29.99R WCI   6
STURGEON BAY   MOCLDY    17   6  62 NW21G32   29.95R WCI   0
GREEN BAY      MOCLDY    19   7  59 NW21G26   29.99R WCI   3
MANITOWOC      FLURRIES  19  10  68 NW21      29.95S WCI   3
APPLETON       CLOUDY    19   7  58 N12G24    29.97R WCI   7
CLINTONVILLE   NOT AVBL
OSHKOSH        CLOUDY    20   8  60 NW16G25   29.98R WCI   6
$$

WIZ032>034-041-042-053>061-120800-
SOUTHWEST WISCONSIN

CITY           SKY/WX    TMP DP  RH WIND       PRES   REMARKS
LA CROSSE      PTCLDY    19   9  65 N14       30.15R WCI   6
SPARTA         PTCLDY    17   9  71 NW7       30.12R WCI   8
VIROQUA        CLEAR     17  10  72 NW15G25   30.07S WCI   3
BOSCOBEL       CLEAR     21   8  57 NW7       30.12R WCI  12
PRAIRIE DU CHI CLEAR     22   9  58 NW10G23   30.12S WCI  11
PLATTEVILLE    CLEAR     22  12  66 NW15G23   30.07R WCI   8
$$

WIZ056-057-062-063-064-067-068-120800-
SOUTH CENTRAL WISCONSIN

CITY           SKY/WX    TMP DP  RH WIND       PRES   REMARKS
REEDSBURG      CLOUDY    19  10  65 NW10      30.06R WCI   8
BARABOO/DELLS  PTCLDY    19   8  61 NW10G24   30.04R WCI   7
LONE ROCK      NOT AVBL
MINERAL POINT  PTCLDY    23  14  68 NW21G26   30.04R WCI   8
MADISON        CLOUDY    20  12  71 N10G22    30.02R WCI   9
MIDDLETON      MOCLDY    22  12  63 NW22G30   30.03R WCI   7
WATERTOWN      CLOUDY    21  15  78 NW14G22   29.99R WCI   8
MONROE         PTCLDY    23  10  58 NW12G22   30.01R WCI  12
JANESVILLE     CLEAR     25  10  54 N17G28    30.00R WCI  11
$$

WIZ051-052-058>065-066-070>072-120800-
SOUTHEAST WISCONSIN

CITY           SKY/WX    TMP DP  RH WIND       PRES   REMARKS
MILWAUKEE      PTCLDY    24  10  55 NW18G35   29.95R WCI  10
WAUKESHA       CLOUDY    21  10  63 NW14G21   29.96R WCI   8
MILWAUKEE/TIMM MOCLDY    23   9  54 N17G23    29.96R WCI   9
RACINE         MOCLDY    24  12  60 N14G32    29.96R WCI  12
BURLINGTON     PTCLDY    33  25  70 NW18G25   29.97R WCI  22
KENOSHA        CLOUDY    25  10  53 N15G29    29.95R WCI  13
FOND DU LAC    CLOUDY    21   8  57 N13       29.99R WCI   9
SHEBOYGAN      PTCLDY    19   8  62 N18G28    29.95R WCI   4
WEST BEND      MOCLDY    21  10  63 NW23G29   29.95R WCI   5
JUNEAU         MOCLDY    19   7  59 NW16G24   30.00R WCI   5
$$

LSZ147-162-120800-
LAKE SUPERIOR

STATION/POSITION TIME  TEMP    WIND        PRES    WAVE
                       AIR SEA DIR/SP/G            HT/PER
                 (UTC) (F)     (DEG/KT/KT) (MB)    (FT/S)
DEVILS ISLAND    0600   15     320/ 20/ 24 1021.9F
SAXON HARBOR     0640   18                 1019.6S
$$

LMZ867-665-643>646-120800-
LAKE MICHIGAN

STATION/POSITION TIME  TEMP    WIND        PRES    WAVE
                       AIR SEA DIR/SP/G            HT/PER
                 (UTC) (F)     (DEG/KT/KT) (MB)    (FT/S)
NORTHPORT PIER   0640   21     320/ 29/ 36 1013.2R
KEWAUNEE LAKESHO 0630   18     340/ 17/ 25 1013.5R
SHEBOYGAN LAKESH 0600   22     340/ 21/ 26 1014.6R
PORT WASHINGTON  0640   22     330/  7/ 13 1015.6R
MILWAUKEE LAKESH 0630   24     340/ 18/ 23   N/A
KENOSHA   LAKESH 0600   27     340/ 25/ 31 1012.9
$$

TC  - TEMPERATURE IN CELSIUS
VSB - VISIBILITY IN STATUTE MILES
WCI - WIND CHILL INDEX
HX  - HEAT INDEX





USA.gov is the U.S. government's official web portal to all federal, state and local government web resources and services.